Location: Huntsville
(41.2590°N, 111.7678°W)
Time: 02:14:36
(UTC+00:00)

Vanguard 1 - All Passes

Search period start: 03 October 2022 00:00
Search period end: 13 October 2022 00:00
Orbit: 649 x 3832 km, 34.2° (Epoch: 02 October)

Date Brightness Start Highest point End Pass type
(mag) Time Alt. Az. Time Alt. Az. Time Alt. Az.
03 Oct - 00:43:16 10° W 00:53:35 49° SSW 00:59:28 10° ESE daylight
03 Oct - 03:08:40 10° WSW 03:12:41 16° SW 03:15:55 10° S visible
03 Oct - 17:52:34 10° S 18:07:09 23° SE 18:18:18 10° E daylight
03 Oct - 20:12:43 10° SW 20:30:43 45° SSE 20:41:25 10° E daylight
03 Oct - 22:38:18 10° WSW 22:53:16 59° S 23:01:14 10° E daylight
04 Oct - 01:04:24 10° W 01:14:02 43° SSW 01:19:43 10° SE daylight
04 Oct - 03:31:34 10° SW 03:32:46 11° SW 03:33:53 10° SSW visible
04 Oct - 18:10:58 10° SSW 18:27:58 29° SSE 18:40:14 10° E daylight
04 Oct - 20:33:07 10° SW 20:51:34 51° SSE 21:02:10 10° E daylight
04 Oct - 22:59:25 10° WSW 23:13:59 60° S 23:21:43 10° ESE daylight
05 Oct - 01:25:36 10° W 01:34:24 36° SSW 01:39:49 10° SE visible
05 Oct - 16:16:56 10° SSE 16:25:04 13° SE 16:32:28 10° ESE daylight
05 Oct - 18:30:07 10° SSW 18:48:47 36° SSE 19:01:38 10° E daylight
05 Oct - 20:53:49 10° WSW 21:12:26 57° SSE 21:22:50 10° E daylight
05 Oct - 23:20:37 10° W 23:34:40 58° S 23:42:09 10° ESE daylight
06 Oct - 01:46:55 10° W 01:54:38 28° SW 01:59:41 10° SSE visible
06 Oct - 16:32:17 10° S 16:45:44 19° SE 16:57:13 10° ESE daylight
06 Oct - 18:49:48 10° SW 19:09:38 43° SSE 19:22:45 10° E daylight
06 Oct - 21:14:44 10° WSW 21:33:17 61° S 21:43:27 10° E daylight
06 Oct - 23:41:51 10° W 23:55:16 54° SSW 00:02:30 10° ESE daylight
07 Oct - 02:08:29 10° W 02:14:44 21° SW 02:19:12 10° S visible
07 Oct - 16:49:50 10° S 17:06:25 25° SE 17:19:56 10° E daylight
07 Oct - 19:09:53 10° SW 19:30:31 49° SSE 19:43:39 10° E daylight
07 Oct - 21:35:50 10° WSW 21:54:07 64° S 22:03:59 10° E daylight
08 Oct - 00:03:06 10° W 00:15:46 48° SSW 00:22:47 10° SE daylight
08 Oct - 02:30:39 10° WSW 02:34:44 14° SW 02:38:01 10° SSW visible
08 Oct - 17:08:25 10° SSW 17:27:07 32° SE 17:41:48 10° E daylight
08 Oct - 19:30:20 10° SW 19:51:25 55° SSE 20:04:26 10° E daylight
08 Oct - 21:57:02 10° W 22:14:55 64° S 22:24:31 10° ESE daylight
09 Oct - 00:24:24 10° W 00:36:09 41° SSW 00:42:54 10° SE daylight
09 Oct - 15:14:11 10° SSE 15:24:12 14° SE 15:33:41 10° ESE daylight
09 Oct - 17:27:38 10° SSW 17:47:51 39° SSE 18:03:13 10° E daylight
09 Oct - 19:51:02 10° WSW 20:12:20 61° SSE 20:25:08 10° E daylight
09 Oct - 22:18:19 10° W 22:35:41 63° S 22:44:59 10° ESE daylight
10 Oct - 00:45:48 10° W 00:56:24 33° SW 01:02:47 10° SSE daylight
10 Oct - 15:30:10 10° S 15:44:40 21° SE 15:58:00 10° E daylight
10 Oct - 17:47:21 10° SW 18:08:40 46° SSE 18:24:21 10° E daylight
10 Oct - 20:11:58 10° WSW 20:33:16 65° S 20:45:48 10° E daylight
10 Oct - 22:39:37 10° W 22:56:21 59° SSW 23:05:22 10° ESE daylight
11 Oct - 01:07:23 10° W 01:16:29 26° SW 01:22:23 10° SSE visible
11 Oct - 15:47:56 10° S 16:05:09 27° SE 16:20:40 10° E daylight
11 Oct - 18:07:27 10° SW 18:29:32 53° SSE 18:45:18 10° E daylight
11 Oct - 20:33:05 10° WSW 20:54:13 67° S 21:06:24 10° E daylight
11 Oct - 23:00:58 10° W 23:16:57 53° SSW 23:25:39 10° SE daylight
12 Oct - 01:29:23 10° W 01:36:26 19° SW 01:41:29 10° S visible
12 Oct - 16:06:37 10° SSW 16:25:42 34° SE 16:42:34 10° E daylight
12 Oct - 18:27:52 10° SW 18:50:28 59° SSE 19:06:09 10° E daylight
12 Oct - 20:54:18 10° W 21:15:08 67° S 21:26:58 10° ESE daylight
12 Oct - 23:22:21 10° W 23:37:22 46° SSW 23:45:46 10° SE daylight
